User: anonymous   Login
Location: Maddington
(51.2000°N, 1.9167°W)
Time: 01:50:55
(UTC+00:00)
Language:

Cosmos 2297 Rocket - Orbit

View from above orbital plane
View from above orbital plane
View from above satellite
View from above satellite

Ground track
Ground track

The orbit data is extracted from the following two-line orbital elements,

1 23405U 94077B   20328.51860591 -.00000132 +00000-0 -43210-4 0  9993
2 23405 070.9833 096.0096 0004558 244.1629 115.9024 14.15228421342850
Epoch (UTC): 23 November 2020 12:26:47
Eccentricity: 0.0004558
inclination: 70.9833°
perigee height: 838 km
apogee height: 845 km
right ascension of ascending node: 96.0096°
argument of perigee: 244.1629°
revolutions per day: 14.15228421
mean anomaly at epoch: 115.9024°
orbit number at epoch: 34285

The dashed part of the orbit path shows where the satellite is in the earth's shadow,  

DLR